Tracking 18850 objects as of 22-Nov-2017
HD Live streaming from Space Station
objects crossing your sky now

IRIDIUM 920

Track IRIDIUM 920 now!
10-day predictions
IRIDIUM 920 is classified as:


NORAD ID: 24871
Int'l Code: 1997-034C
Perigee: 758.9 km
Apogee: 775.7 km
Inclination: 86.4 °
Period: 100.0 minutes
Semi major axis: 7138 km
RCS: 6.698 m2 (large)
Launch date: July 9, 1997
Source: United States (US)
Launch site: AIR FORCE WESTERN TEST RANGE (AFWTR)
aabbcc
Your satellite tracking list
Your tracking list is empty




NASA's NSSDC Master Catalog

Two Line Element Set (TLE):
1 24871U 97034C   17325.89007652 +.00000109 +00000-0 +28459-4 0  9992
2 24871 086.3947 299.8851 0011815 171.1545 188.9865 14.39499977068778
Source of the keplerian elements: AFSPC